This is the latest recevied weather packets stored in our database for station/object KB4NWJ. If no packets are shown the sender has not sent any weather packets the latest 10 day(s).
| Time | Temp. | Humidity | Pressure | Rain* | Wind** | Luminosity | Snow |
|---|---|---|---|---|---|---|---|
| 1777831658 | 20° C | 43% | 1021.3 hPa | 0 mm | - | 724 W/m² | - |
| 1777831356 | 20° C | 44% | 1021.3 hPa | 0 mm | - | 712 W/m² | - |
| 1777831052 | 20° C | 40% | 1021.4 hPa | 0 mm | - | 721 W/m² | - |
| 1777830751 | 20° C | 45% | 1021.5 hPa | 0 mm | - | 601 W/m² | - |
| 1777830446 | 19.44° C | 44% | 1021.5 hPa | 0 mm | - | 573 W/m² | - |
| 1777830145 | 18.89° C | 41% | 1021.5 hPa | 0 mm | - | 588 W/m² | - |
| 1777829845 | 18.89° C | 44% | 1021.4 hPa | 0 mm | - | 667 W/m² | - |
| 1777829541 | 18.89° C | 45% | 1021.5 hPa | 0 mm | - | 730 W/m² | - |
| 1777829238 | 19.44° C | 48% | 1021.5 hPa | 0 mm | - | 674 W/m² | - |
| 1777828935 | 18.89° C | 53% | 1021.4 hPa | 0 mm | - | 633 W/m² | - |
| 1777828631 | 18.89° C | 50% | 1021.6 hPa | 0 mm | - | 672 W/m² | - |
| 1777828329 | 18.89° C | 47% | 1021.7 hPa | 0 mm | - | 712 W/m² | - |
| 1777828025 | 18.89° C | 48% | 1021.4 hPa | 0 mm | - | 684 W/m² | - |
| 1777827723 | 18.33° C | 49% | 1021.7 hPa | 0 mm | - | 674 W/m² | - |
| 1777827420 | 17.78° C | 48% | 1021.7 hPa | 0 mm | - | 668 W/m² | - |
| 1777827116 | 19.44° C | 47% | 1021.9 hPa | 0 mm | - | 626 W/m² | - |
| 1777826812 | 18.89° C | 48% | 1022.1 hPa | 0 mm | - | 565 W/m² | - |
| 1777826510 | 18.33° C | 51% | 1021.9 hPa | 0 mm | - | 617 W/m² | - |
| 1777826206 | 18.89° C | 47% | 1021.8 hPa | 0 mm | - | 734 W/m² | - |
| 1777825904 | 18.33° C | 51% | 1022 hPa | 0 mm | - | 727 W/m² | - |
| 1777825601 | 17.78° C | 50% | 1022.1 hPa | 0 mm | - | 645 W/m² | - |
| 1777825299 | 17.78° C | 50% | 1022.1 hPa | 0 mm | - | 659 W/m² | - |
| 1777824995 | 17.78° C | 50% | 1022.1 hPa | 0 mm | - | 611 W/m² | - |
| 1777824691 | 17.78° C | 53% | 1022.1 hPa | 0 mm | - | 619 W/m² | - |
| 1777824389 | 17.78° C | 51% | 1022.2 hPa | 0 mm | - | 704 W/m² | - |
* Rain latest hour (hover to see other rain measurements)
** Current wind speed in m/s (hover to see current wind gust speed)